Погода в Сочи

Погода в Сочи : погода сейчас, прогноз погоды и архив. Всё, что Вы хотите узнать о погоде в Сочи!

Поиск расширенной информации на нашем сайте:

Другие новости

Новости СМИ2

Главная страница сайта

Новости сайта

02.10.2013

Напоминаем, что на нашем новом сайте вы можете получить высокодетализированные прогнозы погоды по пунктам России, СНГ и мира (включающие важные для авиации метеовеличины, такие как направление и скорость ветра, видимость, явления погоды, количество и форма облачности, нижняя и верхняя граница облачности), а также ознакомиться с разнообразными материалами по авиационной метеорологии и подборкой полезных ссылок на эту тему.

Сайт Метеоцентр.Азия посвящён разработке технологий оптимизации авиаметеорологического обслуживания, включая проектирование и перспективное создание нескольких автоматизированных авиаметеорологических систем:
- система выпуска высокодетальных прогностических карт явлений погоды для нижнего воздушного пространства по России и ближнему зарубежью;
- система верификации прогнозов TAF (выпускаемых синоптиками официальных АМСГ РФ и ближнего зарубежья) и AUTOTAF (выпускаемых сайтом Метеоцентр.Азия) - выявление ошибок, онлайн-сопоставление с фактической погодой METAR, автоматическое внесение коррективов в прогнозы при резком отклонении фактической погоды от прогноза, подсчёт оправдываемости прогнозов по элементам и в целом;
- система обработки, анализа и отображения авиаметеорологической информации для применения провайдерами метеорологической информации.


Погода в Сочи - сегодня

Время (UTC), дата Ветер
(°,м/с) 
Видим.   Явления Облачность Т
(°С)
Тd
(°С)
f(%) Тe
(°С)
Pmin
(гПа)
dP
(гПа)
Po
(мм)
O2
(г/м3)
Тmin Tmax R s Состояние
почвы
06 17.02.17 060 (СВ) 20000 м    3/3 1500 м 
[Sc]
-0.4 -9.7 49 -4  1027.4  0.4  769  311  -2.3         
09 17.02.17 170 (Ю) 10 км    9/9 1410 м 
[Sc]
+3.5 -1.8 68 +2  1028.8  1.4  770  307           
12 17.02.17 140 (ЮВ) 5{10}  10 км    9/9 750 м кучево-дожд. 
[Cb cap]
+4.8 -0.5 69 +3  1029.1  0.3  770  305           
15 17.02.17 150 (ЮВ) 10 км    8/8 1050 м кучево-дожд. 
[Cb cap]
+3.2 -3.6 61 +1  1030.2  1.1  771  308    +5.9       
18 17.02.17 130 (ЮВ) 4000 м    9/9 1000 м 
[Sc]
+2.9 -4.4 59 +2  1031.7  1.5  772  308           
21 17.02.17 050 (СВ) 4000 м    9/9 960 м 
[Sc]
+1.8 -2.9 71 1031.3  -0.4  772  309           
00 18.02.17 070 (В) 4000 м    6/6 800 м 
[Sc]
+0.5 -2.8 79 -1  1030.4  -0.9  771  311           
03 18.02.17 070 (В) 4000 м    1/1 600 м 
[Sc]
-1 -5.3 73 -4  1029.6  -0.8  771  312  -1.2         
06 18.02.17 070 (В) 20000 м    4/1 600 м верхняя 
[Cu hum|Ci fib]
+1.1 -6.1 59 1028.9  -0.7  770  310  -1.7         
09 18.02.17 120 (ЮВ) 20000 м    10/0 верхняя 
[Cs]
+5.3 -5.6 45 +3  1027.6  -1.3  769  305           
12 18.02.17 140 (ЮВ) 20000 м    10/0 средняя 
[As trans]
+6.6 -6 40 +6  1026.3  -1.3  768  303           
15 18.02.17 040 (СВ) 20000 м    9/0 средняя 
[Ac trans]
+5.6 -5.1 46 +5  1026.1  -0.2  768  304    +7.5       
18 18.02.17 070 (В) 4000 м    4/0 средняя 
[Ac trans]
+2 -3 69 +1  1027.2  1.1  769  308           
21 18.02.17 060 (СВ) 4000 м    ясно 
+0.6 -4.4 69 -2  1028  0.8  770  310           
00 19.02.17 070 (В) 4000 м    ясно 
+0.7 -5 66 -3  1028.6  0.6  770  310           
03 19.02.17 060 (СВ) 4000 м    10/0 средняя 
[Ac und]
+2.2 -5.3 58 +1  1029  0.4  770  309  -0.9         
06 19.02.17 060 (СВ) 20000 м    10/0 верхняя 
[Ci fib]
+2.8 -3.8 62 +2  1030.7  1.7  772  308           
09 19.02.17 140 (ЮВ) 20000 м    5/0 верхняя 
[Ci fib]
+9.7 -3.6 39 +9  1030.7  772  301           
12 19.02.17 130 (ЮВ) 20000 м    9/0 средняя 
[Ac trans]
+10.1 -1.4 45 +10  1029.7  -0.1  771  300           
15 19.02.17 110 (В) 20000 м    10/0 средняя, верхняя 
[Ac trans|Ci fib]
+7.9 +1.3 63 +9  1029.1  -0.6  770  302    +11       
18 19.02.17 070 (В) 4000 м    9/0 средняя 
[Ac trans]
+4.2 -0 74 +4  1028.7  -0.4  770  306           
21 19.02.17 тихо ()   4000 м    9/0 средняя 
[Ac trans]
+3.2 -1.6 71 +3  1028.1  -0.6  770  307           
00 20.02.17 тихо ()   4000 м    ясно 
+2.2 -2.4 72 +2  1027.1  -1  769  308           
03 20.02.17 060 (СВ) 4000 м    ясно 
+1.8 -1.9 76 1026.2  -0.9  768  308  +0.6         
06 20.02.17 050 (СВ) 20000 м    10/0 верхняя 
[Ci fib]
+6.7 -1.6 55 +5  1025.6  -0.6  768  302           
Время (UTC), дата Ветер
(°,м/с) 
Видим.   Явления Облачность Т
(°С)
Тd
(°С)
f(%) Тe
(°С)
Pmin
(гПа)
dP
(гПа)
Po
(мм)
O2
(г/м3)
Тmin Tmax R s Состояние
почвы

Для получения пояснительной информации подведите курсор к названию столбца.

ПОГОДА в Сочи - архив

Всё, что Вы хотите узнать о погоде в Сочи - удобно и подробно!

Выберите нужную дату (начиная с 1 января 2015* года) и нажмите кнопку "Найти".
Будут отображены архивные сводки погоды по пункту Сочи, начиная с указанной даты.


Отображать данные в формате CSV (для использования в таблицах Excel)


Внимание! Наш архив погоды предназначен исключительно для личного некоммерческого использования в познавательных целях. Если Вам необходимы официальные справки о состоянии погоды (для производственных, юридических, коммерческих и т.п. целей), обращайтесь в органы Росгидромета.

*Примечание: данная дата относится к архиву по метеостанциям СССР (Россия, СНГ, Балтия).
Архив по метеостанциям Зарубежной Европы и Азии (кроме Китая) хранится 10 дней, по другим регионам земного шара (Китай, Африка, Америка, Австралия, Океания) - 1 день.

Сочи - район местоположения метеостанции


Название, широта, долгота, высота метеостанции:
Сочи (Адлер) 43.4°ш. 39.9°д. 13 м над ур. моря [Российская Федерация]

Дополнительная информация

В oтличие oт бoльшинства пoгoдных сайтoв мы публикуем пoдрoбную метеoинфoрмацию в детальнoм прoфессиoнальнoм фoрмате.

Характеристики температуры и влажнoсти вoздуха измеряются на высoте 2 м в тени вдали oт зданий и деревьев.
Скoрoсть ветра измеряется на высoте 10 м (на урoвне рoста челoвека скoрoсть ветра ниже в 1.5-2 раза). Если метеoстанция нахoдится в гoрoде или в лесу, тo скoрoсть ветра занижена на 2-4 м/с пo сравнению с oткрытым местoм. Скoрoсть ветра над акватoриями крупных рек и oзёр, а также на вершинах хoлмoв на 2-5 м/с выше, чем в oбычных услoвиях.
Атмoсфернoе давление в разных тoчках местнoсти мoжет значительнo oтличаться oт давления на метеoстанции, в зависимoсти oт услoвий рельефа (при пoдъёме на 10 м давление пoнижается примернo на 1 мм рт.ст.).